SCP
-0 0 0 -0 -0 -0 -0 0 0 -0 -0 -0 -0 -0 -0 -0 -0 -0 -0 -0 -0 -0 -0 -0 -0 -0 -0 -0 -0 -0 -0 -0 -0 -0 -0 -0 -0 -0 0 0 0 0 0
-0 0 0 -0 -0 -0 0 0 0 -0 -0 -0 -0 -0 -0 -0 -0 -0 -0 -0 -0 -0 -0 -0 -0 -0 -0 -0 -0 -0 -0 -0 -0 -0 -0 -0 -0 -0 0 0 0 0 0
-0 0 0 0 -0 0 0 0 -0 -0 -0 -0 -0 -0 -0 -0 -0 -0 -0 -0 -0 -0 -0 -0 -0 -0 -0 -0 -0 -0 -0 -0 -0 -0 -0 0 0 0 0 0 0 0 0
-0 0 0 -0 0 -0 -0 -0 0 -0 -0 -0 -0 -0 -0 -0 -0 -0 -0 -0 -0 -0 -0 -0 -0 -0 -0 -0 -0 -0 -0 -0 -0 -0 0 0 0 -0 -0 0 0 0 0
0 0 0 0 0 -0 -0 0 0 0 -0 -0 -0 -0 -0 -0 -0 -0 -0 -0 -0 -0 -0 -0 -0 -0 -0 -0 -0 -0 -0 -0 -0 0 0 0 0 -0 -0 -0 0 0 0
0 0 0 0 0 -0 0 -0 0 -0 -0 -0 -0 -0 -0 -0 -0 -0 -0 -0 -0 -0 -0 -0 -0 -0 -0 -0 -0 -0 -0 -0 -0 0 0 0 0 -0 -0 -0 0 0 0
0 0 0 0 0 0 -0 -0 0 0 -0 -0 -0 -0 -0 -0 -0 -0 -0 -0 -0 -0 -0 -0 -0 -0 -0 -0 -0 -0 -0 -0 0 0 0 0 0 -0 -0 -0 0 0 0
-0 0 0 0 0 0 -0 0 0 0 -0 -0 -0 -0 -0 -0 -0 -0 -0 -0 -0 -0 -0 -0 -0 -0 -0 -0 -0 -0 -0 -0 0 0 0 0 0 -0 0 0 0 0 0
0 0 0 0 0 0 0 0 0 -0 -0 -0 -0 -0 -0 -0 -0 -0 -0 -0 -0 -0 -0 -0 -0 -0 -0 -0 -0 -0 -0 -0 0 0 0 0 0 0 0 0 0 0 0
-0 -0 0 0 0 0 0 0 0 0 0 0 -0 -0 -0 -0 -0 -0 -0 -0 -0 -0 -0 -0 -0 -0 -0 -0 0 0 0 0 0 0 0 0 0 0 0 0 0 0 0
-0 -0 0 0 0 0 0 0 0 0 -0 -0 0 -0 -0 -0 -0 -0 -0 -0 -0 -0 -0 -0 -0 -0 -0 0 0 0 0 0 0 0 0 0 0 0 0 0 0 0 0
-0 -0 0 0 0 0 0 0 0 0 0 0 0 -0 0 -0 -0 -0 -0 -0 -0 -0 -0 -0 0 0 0 0 0 0 0 0 0 0 0 0 0 0 0 0 0 0 0
-0 -0 -0 0 0 0 0 0 0 0 0 0 0 0 0 0 0 0 0 0 0 0 0 0 0 0 0 0 0 0 0 0 0 0 0 0 0 0 0 0 0 0 0
-0 -0 -0 0 0 0 0 0 0 0 0 0 0 0 0 0 0 0 0 0 0 0 0 0 0 0 0 0 0 0 0 0 0 0 0 0 0 0 0 0 0 0 0
0 -0 -0 0 0 0 0 0 0 0 0 0 0 0 0 0 0 0 0 0 0 0 0 0 0 0 0 0 0 0 0 0 0 0 0 0 0 0 0 0 0 0 0
0 0 0 0 0 0 0 0 0 0 0 0 0 0 0 0 0 0 0 0 0 0 0 0 0 0 0 0 0 0 0 0 0 0 0 0 0 0 0 0 0 0 0
0 0 0 0 0 0 0 0 0 0 0 0 0 0 0 0 0 0 0 0 0 0 0 0 0 0 0 0 0 0 0 0 0 0 0 0 0 0 0 0 0 0 0
0 0 0 0 0 0 0 0 0 0 0 0 0 0 0 0 0 0 0 0 0 0 0 0 0 0 0 0 0 0 0 0 0 0 0 0 0 0 0 0 0 0 0
0 0 0 0 0 0 0 0 0 0 0 0 0 0 0 0 0 0 0 0 0 0 0 0 0 0 0 0 0 0 0 0 0 0 0 0 0 0 0 0 0 0 0
0 0 0 0 0 0 0 0 0 0 0 0 0 0 0 0 0 0 0 0 0 0 0 0 0 0 0 0 0 0 0 0 0 0 0 0 0 0 0 0 0 0 0
0 0 0 0 0 0 0 0 0 0 0 0 0 0 0 0 0 0 0 0 0 0 0 0 0 0 0 0 0 0 0 0 0 0 0 0 0 0 0 0 0 0 0
0 0 0 0 0 0 0 0 0 0 0 0 0 0 0 0 0 0 0 0 0 0 0 0 0 0 0 0 0 0 0 0 0 0 0 0 0 0 0 0 0 0 0
-0 -0 0 0 0 0 0 0 0 0 0 0 0 0 0 0 0 0 0 0 0 0 0 0 0 0 0 0 0 0 0 0 0 0 0 0 0 0 0 0 0 0 0
-0 -0 -0 -0 -0 0 -0 0 0 0 0 0 0 0 0 0 0 0 0 0 0 0 0 0 0 0 0 0 0 0 0 0 0 0 0 0 0 0 0 0 0 0 0
0 0 -0 -0 -0 -0 -0 -0 0 0 0 0 0 0 0 0 0 0 0 0 0 0 0 0 0 0 0 0 0 0 0 0 0 0 0 0 0 0 0 0 0 0 0
0 0 0 0 0 -0 -0 -0 -0 0 0 0 0 0 0 0 0 0 0 0 0 0 0 0 0 0 0 0 0 0 0 0 0 0 0 0 0 0 0 0 0 0 0
Wind_Speed_500mb
36 26 26 25 23 23 26 27 25 23 24 22 19 15 10 7 6 9 15 21 31 30 31 34 33 30 32 28 30 33 35 33 32 34 34 36 41 39 46 45 41 40 42
37 31 28 22 21 22 23 21 21 19 19 17 13 9 5 6 9 15 18 26 32 29 30 32 35 28 32 34 35 36 31 30 32 33 33 39 40 42 41 37 39 41 38
35 30 24 20 20 19 19 18 21 16 12 9 7 6 8 12 17 18 23 27 27 29 30 30 32 31 31 35 36 34 33 33 36 36 36 40 40 38 36 39 39 36 37
33 24 17 19 19 22 21 20 18 10 6 8 6 5 13 17 21 24 26 29 28 28 29 31 28 30 32 32 33 32 34 36 36 35 36 36 38 37 36 36 36 34 35
28 18 18 18 22 24 24 20 13 8 5 6 7 9 16 23 23 25 25 28 26 26 26 27 26 30 30 30 30 32 34 34 32 31 33 34 38 35 34 34 33 32 32
27 21 16 19 21 23 22 19 15 12 12 13 11 11 15 22 24 23 23 24 24 22 25 23 25 28 27 27 30 31 31 31 29 29 30 35 34 31 33 32 31 31 32
28 21 15 16 18 20 21 19 18 14 24 23 18 12 18 23 23 22 21 21 21 18 20 23 23 23 25 27 29 29 29 27 26 26 27 32 31 28 28 27 28 28 27
22 18 15 14 17 17 20 20 20 13 26 29 25 19 16 23 21 19 19 20 18 15 16 20 20 21 23 25 27 27 25 24 23 23 24 29 25 25 23 23 24 24 24
23 19 15 16 16 18 21 24 19 16 20 27 24 26 19 16 18 18 16 16 15 13 13 15 16 17 19 21 22 22 21 21 19 20 21 21 21 21 21 23 22 21 21
23 20 18 17 18 18 22 27 27 29 25 23 19 23 22 17 20 18 15 14 13 12 11 11 12 14 16 17 18 16 16 16 15 16 17 18 21 21 17 20 19 18 19
29 26 24 19 20 20 19 26 31 35 32 24 17 15 25 20 16 16 13 12 12 12 11 9 9 10 10 11 12 12 11 10 11 12 15 18 15 13 11 14 18 20 18
35 32 26 24 21 21 23 18 21 26 26 21 17 11 16 16 15 15 14 14 15 14 13 10 5 3 4 5 5 5 6 6 8 9 12 14 16 16 17 14 16 17 15
32 32 30 26 25 24 22 20 16 12 13 13 12 11 13 13 12 13 12 10 9 9 9 8 7 5 3 4 3 2 1 3 5 6 10 13 15 16 15 14 9 17 11
39 34 30 30 27 26 24 21 19 18 18 20 20 20 17 15 14 14 14 13 11 10 9 8 9 11 11 10 10 9 8 8 9 9 10 12 14 13 9 10 10 16 5
43 37 33 32 31 30 27 24 23 20 18 18 18 17 15 13 13 14 14 13 13 11 11 11 11 12 13 15 15 15 14 14 14 13 13 13 13 11 8 10 10 8 13
46 41 35 33 33 32 30 27 25 23 22 22 22 19 17 15 15 15 16 15 15 15 16 16 16 15 16 17 18 19 21 21 20 19 19 18 17 16 14 13 13 12 23
49 43 39 35 36 35 32 33 29 28 28 27 25 25 22 20 19 18 18 17 17 19 21 20 20 21 21 21 21 23 25 26 26 25 25 25 24 22 22 21 19 24 32
53 51 45 41 41 38 35 35 32 31 33 31 31 31 28 25 24 23 23 21 21 23 23 24 24 26 26 27 26 27 30 32 32 31 32 31 29 28 26 25 27 28 32
55 54 52 50 47 44 40 38 37 37 38 38 38 37 35 33 32 31 29 25 26 28 29 29 29 31 31 32 31 32 34 36 37 38 36 35 34 33 32 27 32 32 37
58 57 57 55 53 50 48 46 46 45 45 45 46 46 42 41 39 38 35 34 35 36 36 35 36 37 37 36 38 39 40 42 44 45 42 44 41 40 39 40 31 35 34
61 64 64 64 63 61 61 60 60 60 54 52 52 50 49 48 46 46 45 43 44 45 43 42 42 43 44 43 45 45 46 47 50 50 49 50 48 47 45 46 43 28 34
56 59 67 69 69 69 67 65 65 61 62 58 54 55 56 56 55 54 53 51 50 53 53 52 51 53 53 49 51 49 49 47 55 58 59 58 57 57 57 55 48 39 36
60 61 62 66 71 72 72 69 68 70 70 68 68 65 63 61 60 60 60 59 59 59 62 61 60 61 62 58 56 51 22 27 35 42 51 61 65 64 65 53 61 52 53
75 70 66 63 65 69 72 76 74 74 73 68 65 63 66 65 65 64 67 68 68 68 70 69 66 67 67 70 65 64 66 68 45 38 48 53 57 67 69 67 70 68 60
67 72 70 69 69 67 69 71 72 72 71 68 67 63 62 63 65 66 69 72 74 76 76 75 74 73 74 75 77 75 72 77 77 72 59 57 63 65 72 77 80 74 70
68 66 68 71 72 73 72 68 72 70 68 68 65 64 64 61 62 61 64 68 71 74 75 77 79 80 79 81 81 83 83 78 79 79 85 91 89 88 84 87 83 85 85
Wind_Direction_500mb
161 149 133 135 133 126 125 125 122 120 115 113 112 109 102 92 63 69 74 85 98 90 87 87 86 78 85 86 85 85 88 82 79 90 87 79 76 81 82 76 74 61 59
157 153 141 144 140 135 130 129 127 123 115 115 112 97 72 78 96 89 90 96 101 91 89 83 90 81 80 79 81 82 81 78 73 81 82 80 78 76 80 89 89 80 70
156 154 152 151 150 147 142 137 130 125 116 102 79 67 64 84 95 98 101 101 99 96 93 80 81 80 80 78 81 83 81 82 81 81 80 80 75 72 75 77 76 77 76
156 153 159 164 158 147 148 145 142 139 113 100 67 66 84 98 99 101 104 101 101 101 85 81 80 84 80 82 85 85 83 82 82 82 80 77 78 77 74 69 67 76 78
176 179 172 173 164 158 160 161 169 179 167 119 98 83 98 99 96 100 102 108 108 102 85 82 83 85 85 87 88 85 83 83 82 80 80 78 74 70 69 67 66 65 67
178 180 186 174 179 180 181 185 181 201 183 131 108 103 116 107 99 97 97 98 103 102 88 88 84 82 86 90 90 87 83 81 80 79 77 75 73 65 63 62 62 61 59
181 182 187 179 185 188 184 185 192 196 145 132 133 133 123 112 104 98 96 98 102 102 98 94 89 89 91 93 90 88 84 81 77 74 71 75 72 65 60 58 55 54 52
196 198 192 182 184 188 187 185 193 212 158 151 148 135 120 118 112 108 105 107 106 108 100 97 95 92 91 93 92 88 83 76 71 68 68 72 67 61 53 51 50 47 43
192 206 202 190 189 188 196 192 199 175 155 160 163 155 148 133 132 124 110 108 116 120 113 103 100 98 96 93 94 89 82 75 64 57 58 67 61 55 44 41 36 34 33
196 207 209 202 191 187 185 181 177 162 164 170 168 174 166 156 142 134 128 122 117 115 112 114 115 107 101 101 100 93 85 75 60 49 41 49 44 37 27 28 36 36 14
200 204 202 205 193 181 183 175 175 175 182 182 176 167 160 155 137 144 136 123 119 124 136 141 131 123 114 111 108 101 90 74 57 42 33 37 36 32 28 24 6 4 11
203 202 200 200 203 192 185 192 187 188 189 190 183 179 157 167 167 167 160 153 151 152 156 161 159 136 105 116 114 109 98 69 45 30 21 19 12 10 14 26 14 13 9
208 207 201 204 204 205 203 196 198 201 194 183 179 180 174 171 180 184 175 170 160 160 170 180 198 235 242 236 235 237 251 310 339 353 358 356 360 0 21 18 20 354 341
212 214 208 206 212 208 214 213 207 205 198 192 187 190 188 187 192 195 193 193 190 191 200 216 234 243 257 261 256 254 266 280 296 313 328 335 343 351 13 357 332 328 262
217 213 216 214 215 213 216 220 219 215 213 210 205 200 204 204 205 210 214 214 214 217 226 238 246 251 253 261 264 262 264 269 276 285 299 306 319 328 324 317 319 308 262
219 216 217 219 219 223 225 227 229 224 220 220 217 213 215 219 222 220 221 224 230 235 243 249 255 260 259 261 262 263 262 265 272 277 284 289 298 304 296 279 289 250 278
220 219 220 222 224 226 229 229 228 227 225 226 225 223 225 226 228 230 230 229 233 242 249 255 259 262 264 266 264 264 263 264 268 272 277 282 284 290 288 284 280 275 287
225 225 224 223 226 229 229 230 230 231 232 231 231 233 233 234 237 237 238 237 236 246 253 257 260 262 264 266 267 265 262 263 265 267 271 273 276 284 284 285 291 291 292
229 229 229 229 230 232 234 233 233 234 237 237 236 238 238 239 241 243 245 245 245 249 254 256 259 261 264 266 266 264 262 262 263 263 266 268 274 285 279 279 294 294 297
232 234 235 235 237 236 238 238 237 238 238 239 240 241 242 244 244 247 249 248 248 252 255 257 261 263 266 267 267 266 265 265 262 261 263 263 271 276 276 273 278 295 298
234 234 235 235 236 236 236 237 237 239 241 243 243 245 246 247 249 249 251 252 251 255 260 261 263 265 266 267 268 268 268 269 266 264 263 264 266 265 268 268 264 267 290
238 237 237 236 237 239 240 241 244 248 250 251 254 253 252 252 253 254 255 257 258 260 262 262 263 264 265 263 264 269 273 274 268 261 264 261 262 261 262 274 256 258 266
238 240 238 238 239 240 242 244 245 248 252 252 251 253 254 255 255 257 259 260 260 260 262 263 263 265 267 267 263 259 260 262 278 267 264 264 261 258 257 258 262 259 264
246 242 242 242 242 243 241 243 245 248 252 259 261 263 263 261 262 262 263 263 264 263 263 265 266 266 266 268 266 261 265 263 268 279 275 266 263 258 257 258 262 257 254
246 238 241 242 243 243 243 241 246 248 254 260 264 267 267 266 264 264 265 267 267 268 267 267 268 267 267 267 267 266 265 267 259 260 268 268 264 259 261 255 258 263 254
245 238 238 241 242 242 243 243 245 250 253 258 263 266 269 272 271 271 270 268 269 270 271 272 271 270 269 268 267 267 264 262 264 258 260 265 270 270 267 262 260 256 253
Wind_Speed_850mb
36 26 26 25 23 23 26 27 25 23 24 22 19 15 10 7 6 9 15 21 31 30 31 34 33 30 32 28 30 33 35 33 32 34 34 36 41 39 46 45 41 40 42
37 31 28 22 21 22 23 21 21 19 19 17 13 9 5 6 9 15 18 26 32 29 30 32 35 28 32 34 35 36 31 30 32 33 33 39 40 42 41 37 39 41 38
35 30 24 20 20 19 19 18 21 16 12 9 7 6 8 12 17 18 23 27 27 29 30 30 32 31 31 35 36 34 33 33 36 36 36 40 40 38 36 39 39 36 37
33 24 17 19 19 22 21 20 18 10 6 8 6 5 13 17 21 24 26 29 28 28 29 31 28 30 32 32 33 32 34 36 36 35 36 36 38 37 36 36 36 34 35
28 18 18 18 22 24 24 20 13 8 5 6 7 9 16 23 23 25 25 28 26 26 26 27 26 30 30 30 30 32 34 34 32 31 33 34 38 35 34 34 33 32 32
27 21 16 19 21 23 22 19 15 12 12 13 11 11 15 22 24 23 23 24 24 22 25 23 25 28 27 27 30 31 31 31 29 29 30 35 34 31 33 32 31 31 32
28 21 15 16 18 20 21 19 18 14 24 23 18 12 18 23 23 22 21 21 21 18 20 23 23 23 25 27 29 29 29 27 26 26 27 32 31 28 28 27 28 28 27
22 18 15 14 17 17 20 20 20 13 26 29 25 19 16 23 21 19 19 20 18 15 16 20 20 21 23 25 27 27 25 24 23 23 24 29 25 25 23 23 24 24 24
23 19 15 16 16 18 21 24 19 16 20 27 24 26 19 16 18 18 16 16 15 13 13 15 16 17 19 21 22 22 21 21 19 20 21 21 21 21 21 23 22 21 21
23 20 18 17 18 18 22 27 27 29 25 23 19 23 22 17 20 18 15 14 13 12 11 11 12 14 16 17 18 16 16 16 15 16 17 18 21 21 17 20 19 18 19
29 26 24 19 20 20 19 26 31 35 32 24 17 15 25 20 16 16 13 12 12 12 11 9 9 10 10 11 12 12 11 10 11 12 15 18 15 13 11 14 18 20 18
35 32 26 24 21 21 23 18 21 26 26 21 17 11 16 16 15 15 14 14 15 14 13 10 5 3 4 5 5 5 6 6 8 9 12 14 16 16 17 14 16 17 15
32 32 30 26 25 24 22 20 16 12 13 13 12 11 13 13 12 13 12 10 9 9 9 8 7 5 3 4 3 2 1 3 5 6 10 13 15 16 15 14 9 17 11
39 34 30 30 27 26 24 21 19 18 18 20 20 20 17 15 14 14 14 13 11 10 9 8 9 11 11 10 10 9 8 8 9 9 10 12 14 13 9 10 10 16 5
43 37 33 32 31 30 27 24 23 20 18 18 18 17 15 13 13 14 14 13 13 11 11 11 11 12 13 15 15 15 14 14 14 13 13 13 13 11 8 10 10 8 13
46 41 35 33 33 32 30 27 25 23 22 22 22 19 17 15 15 15 16 15 15 15 16 16 16 15 16 17 18 19 21 21 20 19 19 18 17 16 14 13 13 12 23
49 43 39 35 36 35 32 33 29 28 28 27 25 25 22 20 19 18 18 17 17 19 21 20 20 21 21 21 21 23 25 26 26 25 25 25 24 22 22 21 19 24 32
53 51 45 41 41 38 35 35 32 31 33 31 31 31 28 25 24 23 23 21 21 23 23 24 24 26 26 27 26 27 30 32 32 31 32 31 29 28 26 25 27 28 32
55 54 52 50 47 44 40 38 37 37 38 38 38 37 35 33 32 31 29 25 26 28 29 29 29 31 31 32 31 32 34 36 37 38 36 35 34 33 32 27 32 32 37
58 57 57 55 53 50 48 46 46 45 45 45 46 46 42 41 39 38 35 34 35 36 36 35 36 37 37 36 38 39 40 42 44 45 42 44 41 40 39 40 31 35 34
61 64 64 64 63 61 61 60 60 60 54 52 52 50 49 48 46 46 45 43 44 45 43 42 42 43 44 43 45 45 46 47 50 50 49 50 48 47 45 46 43 28 34
56 59 67 69 69 69 67 65 65 61 62 58 54 55 56 56 55 54 53 51 50 53 53 52 51 53 53 49 51 49 49 47 55 58 59 58 57 57 57 55 48 39 36
60 61 62 66 71 72 72 69 68 70 70 68 68 65 63 61 60 60 60 59 59 59 62 61 60 61 62 58 56 51 22 27 35 42 51 61 65 64 65 53 61 52 53
75 70 66 63 65 69 72 76 74 74 73 68 65 63 66 65 65 64 67 68 68 68 70 69 66 67 67 70 65 64 66 68 45 38 48 53 57 67 69 67 70 68 60
67 72 70 69 69 67 69 71 72 72 71 68 67 63 62 63 65 66 69 72 74 76 76 75 74 73 74 75 77 75 72 77 77 72 59 57 63 65 72 77 80 74 70
68 66 68 71 72 73 72 68 72 70 68 68 65 64 64 61 62 61 64 68 71 74 75 77 79 80 79 81 81 83 83 78 79 79 85 91 89 88 84 87 83 85 85
Wind_Direction_850mb
161 149 133 135 133 126 125 125 122 120 115 113 112 109 102 92 63 69 74 85 98 90 87 87 86 78 85 86 85 85 88 82 79 90 87 79 76 81 82 76 74 61 59
157 153 141 144 140 135 130 129 127 123 115 115 112 97 72 78 96 89 90 96 101 91 89 83 90 81 80 79 81 82 81 78 73 81 82 80 78 76 80 89 89 80 70
156 154 152 151 150 147 142 137 130 125 116 102 79 67 64 84 95 98 101 101 99 96 93 80 81 80 80 78 81 83 81 82 81 81 80 80 75 72 75 77 76 77 76
156 153 159 164 158 147 148 145 142 139 113 100 67 66 84 98 99 101 104 101 101 101 85 81 80 84 80 82 85 85 83 82 82 82 80 77 78 77 74 69 67 76 78
176 179 172 173 164 158 160 161 169 179 167 119 98 83 98 99 96 100 102 108 108 102 85 82 83 85 85 87 88 85 83 83 82 80 80 78 74 70 69 67 66 65 67
178 180 186 174 179 180 181 185 181 201 183 131 108 103 116 107 99 97 97 98 103 102 88 88 84 82 86 90 90 87 83 81 80 79 77 75 73 65 63 62 62 61 59
181 182 187 179 185 188 184 185 192 196 145 132 133 133 123 112 104 98 96 98 102 102 98 94 89 89 91 93 90 88 84 81 77 74 71 75 72 65 60 58 55 54 52
196 198 192 182 184 188 187 185 193 212 158 151 148 135 120 118 112 108 105 107 106 108 100 97 95 92 91 93 92 88 83 76 71 68 68 72 67 61 53 51 50 47 43
192 206 202 190 189 188 196 192 199 175 155 160 163 155 148 133 132 124 110 108 116 120 113 103 100 98 96 93 94 89 82 75 64 57 58 67 61 55 44 41 36 34 33
196 207 209 202 191 187 185 181 177 162 164 170 168 174 166 156 142 134 128 122 117 115 112 114 115 107 101 101 100 93 85 75 60 49 41 49 44 37 27 28 36 36 14
200 204 202 205 193 181 183 175 175 175 182 182 176 167 160 155 137 144 136 123 119 124 136 141 131 123 114 111 108 101 90 74 57 42 33 37 36 32 28 24 6 4 11
203 202 200 200 203 192 185 192 187 188 189 190 183 179 157 167 167 167 160 153 151 152 156 161 159 136 105 116 114 109 98 69 45 30 21 19 12 10 14 26 14 13 9
208 207 201 204 204 205 203 196 198 201 194 183 179 180 174 171 180 184 175 170 160 160 170 180 198 235 242 236 235 237 251 310 339 353 358 356 360 0 21 18 20 354 341
212 214 208 206 212 208 214 213 207 205 198 192 187 190 188 187 192 195 193 193 190 191 200 216 234 243 257 261 256 254 266 280 296 313 328 335 343 351 13 357 332 328 262
217 213 216 214 215 213 216 220 219 215 213 210 205 200 204 204 205 210 214 214 214 217 226 238 246 251 253 261 264 262 264 269 276 285 299 306 319 328 324 317 319 308 262
219 216 217 219 219 223 225 227 229 224 220 220 217 213 215 219 222 220 221 224 230 235 243 249 255 260 259 261 262 263 262 265 272 277 284 289 298 304 296 279 289 250 278
220 219 220 222 224 226 229 229 228 227 225 226 225 223 225 226 228 230 230 229 233 242 249 255 259 262 264 266 264 264 263 264 268 272 277 282 284 290 288 284 280 275 287
225 225 224 223 226 229 229 230 230 231 232 231 231 233 233 234 237 237 238 237 236 246 253 257 260 262 264 266 267 265 262 263 265 267 271 273 276 284 284 285 291 291 292
229 229 229 229 230 232 234 233 233 234 237 237 236 238 238 239 241 243 245 245 245 249 254 256 259 261 264 266 266 264 262 262 263 263 266 268 274 285 279 279 294 294 297
232 234 235 235 237 236 238 238 237 238 238 239 240 241 242 244 244 247 249 248 248 252 255 257 261 263 266 267 267 266 265 265 262 261 263 263 271 276 276 273 278 295 298
234 234 235 235 236 236 236 237 237 239 241 243 243 245 246 247 249 249 251 252 251 255 260 261 263 265 266 267 268 268 268 269 266 264 263 264 266 265 268 268 264 267 290
238 237 237 236 237 239 240 241 244 248 250 251 254 253 252 252 253 254 255 257 258 260 262 262 263 264 265 263 264 269 273 274 268 261 264 261 262 261 262 274 256 258 266
238 240 238 238 239 240 242 244 245 248 252 252 251 253 254 255 255 257 259 260 260 260 262 263 263 265 267 267 263 259 260 262 278 267 264 264 261 258 257 258 262 259 264
246 242 242 242 242 243 241 243 245 248 252 259 261 263 263 261 262 262 263 263 264 263 263 265 266 266 266 268 266 261 265 263 268 279 275 266 263 258 257 258 262 257 254
246 238 241 242 243 243 243 241 246 248 254 260 264 267 267 266 264 264 265 267 267 268 267 267 268 267 267 267 267 266 265 267 259 260 268 268 264 259 261 255 258 263 254
245 238 238 241 242 242 243 243 245 250 253 258 263 266 269 272 271 271 270 268 269 270 271 272 271 270 269 268 267 267 264 262 264 258 260 265 270 270 267 262 260 256 253